EST,Max TemperatureF,Mean TemperatureF,Min TemperatureF,Max Dew PointF,MeanDew PointF,Min DewpointF,Max Humidity, Mean Humidity, Min Humidity, Max Sea Level PressureIn, Mean Sea Level PressureIn, Min Sea Level PressureIn, Max VisibilityMiles, Mean VisibilityMiles, Min VisibilityMiles, Max Wind SpeedMPH, Mean Wind SpeedMPH, Max Gust SpeedMPH,PrecipitationIn, CloudCover, Events, WindDirDegrees
2011-11-1,64,46,28,37,32,27,100,68,26,30.34,30.29,30.25,10,8,1,8,1,,0.00,0,,257
2011-11-2,68,50,32,36,33,30,100,69,24,30.39,30.30,30.24,10,9,4,9,1,,0.00,0,,234
2011-11-3,60,45,30,52,41,30,100,94,59,30.28,30.04,29.85,10,7,1,9,1,,0.81,4,Rain,227
2011-11-4,55,48,41,45,41,37,93,84,63,30.14,30.00,29.86,10,10,7,14,3,25,0.00,4,Rain,51
2011-11-5,62,47,32,48,38,32,100,86,45,30.31,30.23,30.15,10,5,0,8,1,,0.00,3,Fog,266
2011-11-6,64,46,28,43,35,28,100,82,42,30.45,30.38,30.32,10,7,0,8,1,,0.00,1,Fog,261
2011-11-7,69,50,32,48,40,32,100,78,40,30.42,30.34,30.26,10,8,1,7,1,,0.00,0,,261
2011-11-8,69,51,33,48,41,34,100,80,40,30.31,30.24,30.15,10,7,0,9,1,,0.00,0,Fog,264
2011-11-9,64,50,37,57,47,37,100,90,63,30.19,30.11,30.01,10,7,0,7,0,,0.29,5,Rain,272
2011-11-10,53,46,39,54,37,21,100,70,37,30.08,30.02,29.98,10,10,10,12,3,17,0.01,4,,351
2011-11-11,53,38,24,28,22,16,86,57,24,30.22,30.14,30.08,10,10,10,10,2,,0.00,0,,199
2011-11-12,60,43,26,36,30,23,100,70,29,30.30,30.25,30.20,10,10,10,12,1,,0.00,0,,264
2011-11-13,62,46,30,48,38,30,100,72,44,30.25,30.17,30.06,10,10,10,9,1,16,0.00,4,,212
2011-11-14,62,58,55,61,56,50,100,89,77,30.15,30.09,30.03,10,9,2,4,0,,0.05,8,Rain,200
2011-11-15,66,62,59,63,61,59,100,96,83,30.03,29.99,29.96,10,6,1,8,4,,0.33,8,Rain,258
2011-11-16,71,62,51,63,60,52,100,93,69,29.94,29.86,29.75,10,8,1,18,2,26,1.63,8,Rain,267
2011-11-17,53,43,33,52,34,18,100,69,42,30.30,30.11,29.89,10,10,5,18,4,29,0.01,4,Rain,37
2011-11-18,55,39,23,30,24,18,93,66,26,30.44,30.37,30.31,10,10,10,8,2,,0.00,0,,257
2011-11-19,60,44,28,50,39,27,94,81,63,30.38,30.34,30.27,10,10,5,8,1,,0.00,6,,231
2011-11-20,68,60,51,59,55,50,100,90,64,30.36,30.31,30.26,10,9,3,12,1,,0.12,8,Rain,245
2011-11-21,66,62,57,63,59,55,100,97,83,30.32,30.27,30.20,10,6,2,14,1,21,0.33,7,Rain,336
2011-11-22,69,62,55,61,58,55,100,90,60,30.19,30.07,29.93,10,8,2,14,2,18,0.91,8,Rain,226
2011-11-23,59,52,44,59,46,37,100,83,71,30.24,30.08,29.91,10,10,4,12,5,23,0.05,7,Rain,60
2011-11-24,64,47,30,41,34,28,100,77,26,30.39,30.34,30.27,10,9,0,7,1,,0.00,1,Fog,263
2011-11-25,68,48,28,36,30,19,100,72,16,30.40,30.34,30.25,10,10,5,8,1,,0.00,0,,251
2011-11-26,64,48,32,50,43,30,100,77,52,30.33,30.26,30.18,10,10,10,10,2,23,0.00,6,,214
2011-11-27,64,62,60,55,52,50,82,69,59,30.16,30.02,29.89,10,10,5,21,8,30,0.38,8,Rain,193
2011-11-28,62,52,42,57,52,41,100,83,72,29.88,29.78,29.67,10,7,3,18,10,32,1.84,8,Rain,179
2011-11-29,37,35,33,36,34,32,100,93,87,29.89,29.80,29.77,10,9,3,12,6,,0.05,8,Rain-Snow,259
2011-11-30,44,36,28,32,30,27,100,82,57,30.17,30.10,30.05,10,10,7,7,3,,0.00,1,,17